This is the latest recevied weather packets stored in our database for station/object KH6DH-13. If no packets are shown the sender has not sent any weather packets the latest 10 day(s).
| Time | Temp. | Humidity | Pressure | Rain* | Wind** | Luminosity | Snow |
|---|---|---|---|---|---|---|---|
| 1777889743 | 23.33° C | - | - | 0.25 mm | 0.45 m/s, 38° | - | - |
| 1777889142 | 22.78° C | - | - | 0.25 mm | 0.45 m/s, 127° | - | - |
| 1777888541 | 22.78° C | - | - | 0.25 mm | 0 m/s | - | - |
| 1777887940 | 22.78° C | - | - | 0.25 mm | 0 m/s | - | - |
| 1777887339 | 22.78° C | - | - | 0.25 mm | 0.89 m/s, 98° | - | - |
| 1777886738 | 22.78° C | - | - | 0 mm | 0.45 m/s, 129° | - | - |
| 1777886137 | 22.78° C | - | - | 0 mm | 0.89 m/s, 21° | - | - |
| 1777885536 | 23.33° C | - | - | 0 mm | 1.34 m/s, 73° | - | - |
| 1777884935 | 23.33° C | - | - | 0 mm | 0.89 m/s, 115° | - | - |
| 1777884334 | 22.78° C | - | - | 0 mm | 0.45 m/s, 332° | - | - |
| 1777883733 | 22.78° C | - | - | 0 mm | 0 m/s | - | - |
| 1777883132 | 23.33° C | - | - | 0 mm | 1.34 m/s, 59° | - | - |
| 1777882531 | 23.33° C | - | - | 0 mm | 0 m/s | - | - |
| 1777881930 | 23.33° C | - | - | 0 mm | 0.89 m/s, 41° | - | - |
| 1777881329 | 22.78° C | - | - | 0 mm | 0.45 m/s, 93° | - | - |
| 1777880728 | 23.33° C | - | - | 0 mm | 0.89 m/s, 94° | - | - |
| 1777880127 | 23.33° C | - | - | 0.25 mm | 1.34 m/s, 48° | - | - |
| 1777879526 | 22.78° C | - | - | 0.25 mm | 0.89 m/s, 104° | - | - |
| 1777878925 | 23.33° C | - | - | 0.25 mm | 1.34 m/s, 52° | - | - |
| 1777878324 | 23.33° C | - | - | 0.25 mm | 0.45 m/s, 198° | - | - |
| 1777877723 | 23.33° C | - | - | 0.25 mm | 0.89 m/s, 25° | - | - |
| 1777877122 | 23.33° C | - | - | 0.25 mm | 0.89 m/s, 314° | - | - |
| 1777876521 | 23.33° C | - | - | 0 mm | 1.79 m/s, 359° | - | - |
| 1777875920 | 23.33° C | - | - | 0 mm | 2.68 m/s, 76° | - | - |
| 1777875319 | 23.33° C | - | - | 0 mm | 1.34 m/s, 83° | - | - |
* Rain latest hour (hover to see other rain measurements)
** Current wind speed in m/s (hover to see current wind gust speed)